This is the latest recevied weather packets stored in our database for station/object R2AKT-13. If no packets are shown the sender has not sent any weather packets the latest 10 day(s).
| Time | Temp. | Humidity | Pressure | Rain* | Wind** | Luminosity | Snow |
|---|---|---|---|---|---|---|---|
| 1788244426 | 20° C | 67% | 992.4 hPa | - | 0 m/s | - | - |
| 1788243891 | 19.44° C | 69% | 992.4 hPa | - | 0.89 m/s, 188° | - | - |
| 1788243336 | 18.89° C | 70% | 992.5 hPa | - | 1.34 m/s, 182° | - | - |
| 1788242751 | 18.33° C | 71% | 992.3 hPa | - | 0.89 m/s, 162° | - | - |
| 1788242191 | 18.33° C | 73% | 992.3 hPa | - | 0 m/s | - | - |
| 1788241616 | 17.78° C | 74% | 992.3 hPa | - | 0.45 m/s, 202° | - | - |
| 1788241026 | 16.67° C | 76% | 992.4 hPa | - | 0.89 m/s, 163° | - | - |
| 1788240446 | 16.11° C | 77% | 992.4 hPa | - | 1.34 m/s, 181° | - | - |
| 1788239961 | 16.11° C | 78% | 992.5 hPa | - | 0.89 m/s, 171° | - | - |
| 1788239461 | 16.11° C | 77% | 992.5 hPa | - | 0 m/s | - | - |
| 1788238976 | 15.56° C | 78% | 992.4 hPa | - | 0.89 m/s, 164° | - | - |
| 1788238426 | 15° C | 79% | 992.4 hPa | - | 0.45 m/s, 171° | - | - |
| 1788237921 | 15° C | 79% | 992.5 hPa | - | 0.45 m/s, 225° | - | - |
| 1788237426 | 15° C | 79% | 992.5 hPa | - | 0 m/s | - | - |
| 1788236826 | 14.44° C | 81% | 992.6 hPa | - | 0.45 m/s, 171° | - | - |
| 1788236236 | 13.89° C | 81% | 992.6 hPa | - | 0.89 m/s, 148° | - | - |
| 1788235736 | 13.89° C | 81% | 992.6 hPa | - | 0.45 m/s, 155° | - | - |
| 1788235191 | 13.89° C | 81% | 992.7 hPa | - | 0.45 m/s, 181° | - | - |
| 1788234661 | 13.89° C | 83% | 992.7 hPa | - | 0.45 m/s, 161° | - | - |
| 1788234096 | 13.33° C | 84% | 992.8 hPa | - | 0.45 m/s, 168° | - | - |
| 1788233501 | 13.33° C | 85% | 992.7 hPa | - | 0.45 m/s, 168° | - | - |
| 1788232966 | 12.78° C | 85% | 992.7 hPa | - | 0.45 m/s, 162° | - | - |
| 1788232401 | 12.78° C | 85% | 992.8 hPa | - | 0.89 m/s, 174° | - | - |
| 1788231802 | 12.78° C | 85% | 992.7 hPa | - | 0.45 m/s, 160° | - | - |
| 1788231296 | 12.78° C | 86% | 992.6 hPa | - | 0.45 m/s, 154° | - | - |
* Rain since midnight (hover to see other rain measurements)
** Current wind speed in m/s (hover to see current wind gust speed)